Weather History for Ostrava, Czech Republic

Change the Weather History Date:

Saturday, September 28, 2013

  Actual Average (EPKT) Record (EPKT)
Temperature  
Mean Temperature 45 °F -  
Max Temperature 57 °F 58 °F 69 °F (2000)
Min Temperature 33 °F 41 °F 33 °F (2008)
Degree Days  
Heating Degree Days 20    
Moisture  
Dew Point 39 °F    
Average Humidity 80    
Maximum Humidity 100    
Minimum Humidity 43    
Precipitation  
Precipitation 0.00 in 0.06 in - ()
Sea Level Pressure  
Sea Level Pressure 30.03 in    
Wind  
Wind Speed 5 mph ()    
Max Wind Speed 9 mph    
Max Gust Speed -    
Visibility 6.7 miles    
Events      
Averages and records for this station are not official NWS values.
T = Trace of Precipitation, MM = Missing Value Source: Averaged Metar Reports

Daily Weather History Graph

Daily Weather History Graph

Search for Another Location

Airport:

Trip Planner

Search our weather history database for the weather conditions in past years. The results will help you decide how hot, cold, wet, or windy it might be!

Date:

Astronomy

Sep. 28, 2013 Rise Set
Actual Time 6:42 AM CEST 6:32 PM CEST
Civil Twilight 6:10 AM CEST 7:04 PM CEST
Nautical Twilight 5:33 AM CEST 7:41 PM CEST
Astronomical Twilight 4:54 AM CEST 8:20 PM CEST
Moon No Moon Rise 3:07 PM CEST (9/28)
Length of Visible Light 12h 53m
Length of Day
11h 49m
Last Quarter, 38% of the Moon is Illuminated
Sep 28
Last Quarter
Oct 5
New
Oct 12
First Quarter
Oct 19
Full
Oct 27
Last Quarter

Hourly Weather History & Observations

Time (CEST) Temp. Windchill Dew Point Humidity Pressure Visibility Wind Dir Wind Speed Gust Speed Precip Events Conditions
12:00 AM 39.2 °F 35.0 °F 35.6 °F 87% 30.04 in - SSW 5.8 mph - N/A   Clear
12:30 AM 39.2 °F - 35.6 °F 87% 30.04 in - SSW 2.3 mph - N/A   Clear
1:00 AM 37.4 °F 31.4 °F 35.6 °F 93% 30.04 in - SW 8.1 mph - N/A   Clear
1:30 AM 35.6 °F 29.2 °F 33.8 °F 93% 30.04 in - SW 8.1 mph - N/A   Clear
2:00 AM 38 °F - 36 °F 90% 30.08 in 9 mi SSW 8.9 mph - -   Scattered Clouds
2:00 AM 39.2 °F 33.6 °F 35.6 °F 87% 30.04 in - SSW 8.1 mph - N/A   Clear
2:30 AM 37.4 °F 31.4 °F 35.6 °F 93% 30.04 in - SSW 8.1 mph - N/A   Clear
3:00 AM 37.4 °F 31.4 °F 35.6 °F 93% 30.04 in 6.2 mi SW 8.1 mph - N/A   Partly Cloudy
3:30 AM 35.6 °F 29.9 °F 33.8 °F 93% 30.04 in 6.2 mi SW 6.9 mph - N/A   Partly Cloudy
4:00 AM 37.4 °F 32.1 °F 35.6 °F 93% 30.04 in 6.2 mi SSW 6.9 mph - N/A   Partly Cloudy
4:30 AM 35.6 °F 30.7 °F 35.6 °F 100% 30.04 in 6.2 mi SW 5.8 mph - N/A   Scattered Clouds
5:00 AM 35.6 °F 29.9 °F 33.8 °F 93% 30.04 in - SW 6.9 mph - N/A   Clear
5:30 AM 33.8 °F 28.6 °F 32.0 °F 93% 30.04 in - SW 5.8 mph - N/A   Clear
6:00 AM 33.8 °F 27.7 °F 33.8 °F 100% 30.04 in - SW 6.9 mph - N/A   Clear
6:30 AM 33.8 °F 28.6 °F 33.8 °F 100% 30.04 in 6.2 mi SSW 5.8 mph - N/A   Scattered Clouds
7:00 AM 35.6 °F 29.9 °F 33.8 °F 93% 30.04 in 6.2 mi SW 6.9 mph - N/A   Scattered Clouds
7:30 AM 35.6 °F 29.9 °F 35.6 °F 100% 30.04 in 5.0 mi SW 6.9 mph - N/A   Mostly Cloudy
8:00 AM 38 °F - 36 °F 90% 30.09 in 16 mi SW 4.5 mph - -   Mostly Cloudy
8:00 AM 37.4 °F 33.8 °F 35.6 °F 93% 30.04 in 6.2 mi SW 4.6 mph - N/A   Mostly Cloudy
8:30 AM 39.2 °F 35.0 °F 37.4 °F 93% 30.04 in 6.2 mi WSW 5.8 mph - N/A   Mostly Cloudy
9:00 AM 41.0 °F 38.0 °F 39.2 °F 93% 30.04 in 6.2 mi WSW 4.6 mph - N/A   Mostly Cloudy
9:30 AM 42.8 °F 40.1 °F 39.2 °F 87% 30.04 in 6.2 mi SW 4.6 mph - N/A   Scattered Clouds
10:00 AM 44.6 °F - 41.0 °F 87% 30.06 in 6.2 mi Variable 2.3 mph - N/A   Partly Cloudy
10:30 AM 48.2 °F - 42.8 °F 82% 30.06 in 6.2 mi Variable 2.3 mph - N/A   Partly Cloudy
11:00 AM 51.8 °F - 42.8 °F 71% 30.06 in 6.2 mi Variable 2.3 mph - N/A   Scattered Clouds
11:30 AM 51.8 °F - 41.0 °F 67% 30.06 in 6.2 mi ENE 3.5 mph - N/A   Mostly Cloudy
12:00 PM 51.8 °F - 41.0 °F 67% 30.04 in 6.2 mi NE 3.5 mph - N/A   Partly Cloudy
12:30 PM 51.8 °F - 41.0 °F 67% 30.04 in 6.2 mi East 3.5 mph - N/A   Partly Cloudy
1:00 PM 53.6 °F - 41.0 °F 62% 30.04 in 6.2 mi Variable 3.5 mph - N/A   Partly Cloudy
1:30 PM 55.4 °F - 41.0 °F 58% 30.01 in 6.2 mi Variable 4.6 mph - N/A   Partly Cloudy
2:00 PM 56 °F - 40 °F 43% 30.02 in 25 mi 2.2 mph - -   Mostly Cloudy
2:00 PM 55.4 °F - 39.2 °F 54% 30.01 in 6.2 mi Variable 2.3 mph - N/A   Partly Cloudy
2:30 PM 57.2 °F - 41.0 °F 55% 30.01 in 6.2 mi NNE 5.8 mph - N/A   Partly Cloudy
3:00 PM 55.4 °F - 41.0 °F 58% 30.01 in 6.2 mi North 5.8 mph - N/A   Partly Cloudy
3:30 PM 55.4 °F - 41.0 °F 58% 30.01 in 6.2 mi North 4.6 mph - N/A   Partly Cloudy
4:00 PM 55.4 °F - 41.0 °F 58% 30.01 in - NNE 4.6 mph - N/A   Clear
4:30 PM 53.6 °F - 39.2 °F 58% 29.98 in - NNE 3.5 mph - N/A   Clear
5:00 PM 55.4 °F - 41.0 °F 58% 29.98 in - NNE 6.9 mph - N/A   Clear
5:30 PM 53.6 °F - 41.0 °F 62% 29.98 in - NNE 6.9 mph - N/A   Clear
6:00 PM 51.8 °F - 42.8 °F 71% 29.98 in - NNE 4.6 mph - N/A   Clear
6:30 PM 51.8 °F - 42.8 °F 71% 30.01 in - NNE 4.6 mph - N/A   Clear
7:00 PM 48.2 °F - 42.8 °F 82% 30.01 in 6.2 mi North 5.8 mph - N/A   Mostly Cloudy
7:30 PM 48.2 °F - 42.8 °F 82% 30.01 in 6.2 mi NNE 4.6 mph - N/A   Mostly Cloudy
8:00 PM 48 °F - 42 °F 73% 30.04 in 12 mi NE 4.5 mph - -   Mostly Cloudy
8:00 PM 48.2 °F - 42.8 °F 82% 30.01 in - NE 4.6 mph - N/A   Clear
8:30 PM 48.2 °F - 42.8 °F 82% 30.01 in 6.2 mi NE 4.6 mph - N/A   Partly Cloudy
9:00 PM 48.2 °F - 42.8 °F 82% 30.04 in 6.2 mi NNW 3.5 mph - N/A   Mostly Cloudy
9:30 PM 48.2 °F - 42.8 °F 82% 30.04 in - NE 3.5 mph - N/A   Clear
10:00 PM 48.2 °F - 42.8 °F 82% 30.04 in - NNE 3.5 mph - N/A   Clear
10:30 PM 48.2 °F - 41.0 °F 76% 30.04 in - NNE 2.3 mph - N/A   Clear
11:00 PM 48.2 °F - 42.8 °F 82% 30.04 in - North 2.3 mph - N/A   Clear
11:30 PM 46.4 °F 45.2 °F 41.0 °F 81% 30.04 in 5.0 mi NNE 3.5 mph - N/A   Unknown